TimeEST,TemperatureF,Dew PointF,Humidity,Sea Level PressureIn,VisibilityMPH,Wind Direction,Wind SpeedMPH,Gust SpeedMPH,PrecipitationIn,Events,Conditions,WindDirDegrees,DateUTC
12:51 AM,19.0,-0.9,42,30.02,10.0,NW,23.0,34.5,N/A,,Scattered Clouds,310,2013-02-18 05:51:00
1:51 AM,19.0,-0.9,42,30.04,10.0,WNW,20.7,35.7,N/A,,Partly Cloudy,300,2013-02-18 06:51:00
2:51 AM,19.0,-0.0,43,30.06,10.0,WNW,24.2,32.2,N/A,,Clear,290,2013-02-18 07:51:00
3:51 AM,18.0,-0.0,45,30.08,10.0,WNW,19.6,35.7,N/A,,Clear,300,2013-02-18 08:51:00
4:51 AM,18.0,-0.0,45,30.10,10.0,NW,16.1,28.8,N/A,,Clear,310,2013-02-18 09:51:00
5:51 AM,18.0,-0.0,45,30.15,10.0,WNW,23.0,31.1,N/A,,Partly Cloudy,290,2013-02-18 10:51:00
6:51 AM,18.0,1.0,48,30.18,10.0,WNW,23.0,31.1,N/A,,Scattered Clouds,300,2013-02-18 11:51:00
7:51 AM,19.9,1.0,44,30.19,10.0,WNW,16.1,25.3,N/A,,Scattered Clouds,300,2013-02-18 12:51:00
8:51 AM,21.0,1.9,44,30.23,10.0,WNW,20.7,28.8,N/A,,Partly Cloudy,290,2013-02-18 13:51:00
9:51 AM,24.1,1.9,38,30.25,10.0,WNW,19.6,24.2,N/A,,Partly Cloudy,290,2013-02-18 14:51:00
10:51 AM,27.0,1.9,34,30.26,10.0,West,15.0,20.7,N/A,,Clear,280,2013-02-18 15:51:00
11:51 AM,30.0,1.9,30,30.25,10.0,West,17.3,-,N/A,,Clear,270,2013-02-18 16:51:00
12:51 PM,32.0,3.0,29,30.22,10.0,West,17.3,-,N/A,,Partly Cloudy,260,2013-02-18 17:51:00
1:51 PM,34.0,1.9,26,30.20,10.0,WNW,13.8,24.2,N/A,,Partly Cloudy,300,2013-02-18 18:51:00
2:51 PM,35.1,1.9,25,30.19,10.0,NW,15.0,-,N/A,,Partly Cloudy,310,2013-02-18 19:51:00
3:51 PM,36.0,1.9,24,30.19,10.0,West,12.7,23.0,N/A,,Partly Cloudy,280,2013-02-18 20:51:00
4:51 PM,35.1,3.9,27,30.21,10.0,West,16.1,-,N/A,,Partly Cloudy,270,2013-02-18 21:51:00
5:51 PM,33.1,7.0,34,30.21,10.0,West,12.7,-,N/A,,Partly Cloudy,260,2013-02-18 22:51:00
6:51 PM,32.0,12.0,44,30.23,10.0,WSW,11.5,-,N/A,,Partly Cloudy,250,2013-02-18 23:51:00
7:51 PM,32.0,10.9,42,30.24,10.0,WSW,11.5,-,N/A,,Partly Cloudy,250,2013-02-19 00:51:00
8:51 PM,32.0,12.9,45,30.24,10.0,WSW,13.8,-,N/A,,Scattered Clouds,250,2013-02-19 01:51:00
9:51 PM,30.9,16.0,54,30.24,10.0,WSW,8.1,-,N/A,,Mostly Cloudy,240,2013-02-19 02:51:00
10:51 PM,32.0,15.1,50,30.25,10.0,SW,11.5,-,N/A,,Mostly Cloudy,220,2013-02-19 03:51:00
11:51 PM,32.0,16.0,52,30.24,10.0,SW,9.2,-,N/A,,Mostly Cloudy,220,2013-02-19 04:51:00